Location: Proctor
(47.8934°N, 114.3048°W)
Time: 13:44:14
(UTC+00:00)

AO-92 - Pass Details

Date: 07 July 2022
Orbit: 469 x 481 km, 97.4° (Epoch: 17 August)

Event Time Altitude Azimuth Distance (km) Brightness Sun altitude
Exits shadow 04:27:36 - 112° (ESE) 1,867 ? -7.1°
Reaches altitude 10° 04:28:18 10° 104° (ESE) 1,661 ? -7.2°
Maximum altitude 04:30:36 16° 64° (ENE) 1,317 ? -7.5°
Drops below altitude 10° 04:32:54 10° 24° (NNE) 1,675 ? -7.7°
Sets 04:35:33 0° 3° (N) 2,563 ? -8.0°
